status,avgMeasuredTime,avgSpeed,extID,medianMeasuredTime,TIMESTAMP,vehicleCount,_id,REPORT_ID
OK,146,61,811,146,2014-08-01T07:55:00,3,20746535,190799
OK,136,66,811,136,2014-08-01T08:00:00,3,20746866,190799
OK,136,66,811,136,2014-08-01T08:05:00,3,20747315,190799
OK,135,66,811,135,2014-08-01T08:10:00,2,20747688,190799
OK,135,66,811,135,2014-08-01T08:15:00,1,20748137,190799
OK,135,66,811,135,2014-08-01T08:20:00,1,20748586,190799
OK,135,66,811,135,2014-08-01T08:25:00,1,20749035,190799
OK,135,66,811,135,2014-08-01T08:30:00,1,20749484,190799
OK,148,60,811,148,2014-08-01T08:35:00,2,20749933,190799
OK,142,63,811,142,2014-08-01T08:40:00,3,20750382,190799
OK,146,61,811,146,2014-08-01T08:45:00,5,20750831,190799
OK,146,61,811,146,2014-08-01T08:50:00,5,20751280,190799
OK,140,64,811,140,2014-08-01T08:55:00,3,20751729,190799
OK,130,69,811,130,2014-08-01T09:00:00,2,20752178,190799
OK,142,63,811,142,2014-08-01T09:05:00,3,20752627,190799
OK,142,63,811,142,2014-08-01T09:10:00,3,20753076,190799
OK,128,70,811,128,2014-08-01T09:15:00,1,20753525,190799
OK,136,66,811,136,2014-08-01T09:20:00,3,20753974,190799
OK,137,65,811,137,2014-08-01T09:25:00,2,20754423,190799
OK,121,74,811,121,2014-08-01T09:30:00,1,20754872,190799
OK,121,74,811,121,2014-08-01T09:35:00,0,20755321,190799
OK,121,74,811,121,2014-08-01T09:40:00,0,20755770,190799
OK,144,62,811,144,2014-08-01T09:45:00,3,20756219,190799
OK,148,60,811,148,2014-08-01T09:50:00,1,20756668,190799
OK,148,60,811,148,2014-08-01T09:55:00,0,20757117,190799
OK,148,60,811,148,2014-08-01T10:00:00,0,20757566,190799
OK,151,59,811,151,2014-08-01T10:05:00,2,20758015,190799
OK,151,59,811,151,2014-08-01T10:10:00,0,20758464,190799
OK,160,56,811,160,2014-08-01T10:15:00,1,20758913,190799
OK,142,63,811,142,2014-08-01T10:20:00,3,20759362,190799
OK,141,63,811,141,2014-08-01T10:25:00,2,20759811,190799
OK,132,68,811,132,2014-08-01T10:30:00,1,20760260,190799
OK,128,70,811,128,2014-08-01T10:35:00,2,20760709,190799
OK,125,72,811,125,2014-08-01T10:40:00,1,20761158,190799
OK,154,58,811,154,2014-08-01T10:45:00,3,20761607,190799
OK,148,60,811,148,2014-08-01T10:50:00,2,20762056,190799
OK,133,67,811,133,2014-08-01T10:55:00,1,20762505,190799
OK,133,67,811,133,2014-08-01T11:00:00,0,20762954,190799
OK,133,67,811,133,2014-08-01T11:05:00,0,20763403,190799
OK,138,65,811,138,2014-08-01T11:10:00,2,20763852,190799
OK,117,76,811,117,2014-08-01T11:15:00,1,20764300,190799
OK,134,67,811,134,2014-08-01T11:20:00,2,20764749,190799
OK,120,75,811,120,2014-08-01T11:25:00,2,20765198,190799
OK,117,76,811,117,2014-08-01T11:30:00,1,20765647,190799
OK,117,76,811,117,2014-08-01T11:35:00,0,20766096,190799
OK,124,72,811,124,2014-08-01T11:40:00,1,20766545,190799
OK,131,68,811,131,2014-08-01T11:45:00,3,20766994,190799
OK,142,63,811,142,2014-08-01T11:50:00,1,20767443,190799
OK,129,69,811,129,2014-08-01T11:55:00,1,20767892,190799
OK,137,65,811,137,2014-08-01T12:00:00,3,20768341,190799
OK,135,66,811,135,2014-08-01T12:05:00,2,20768790,190799
OK,133,67,811,133,2014-08-01T12:10:00,4,20769239,190799
OK,139,64,811,139,2014-08-01T12:15:00,1,20769688,190799
OK,151,59,811,151,2014-08-01T12:20:00,1,20770137,190799
OK,140,64,811,140,2014-08-01T12:25:00,2,20770586,190799
OK,129,69,811,129,2014-08-01T12:30:00,1,20771035,190799
OK,142,63,811,142,2014-08-01T12:35:00,2,20771484,190799
OK,139,64,811,139,2014-08-01T12:40:00,3,20771933,190799
OK,139,64,811,139,2014-08-01T12:45:00,1,20772382,190799
OK,139,64,811,139,2014-08-01T12:50:00,0,20772831,190799
OK,123,73,811,123,2014-08-01T12:55:00,1,20773280,190799
OK,131,68,811,131,2014-08-01T13:00:00,5,20773729,190799
OK,132,68,811,132,2014-08-01T13:05:00,4,20774178,190799
OK,133,67,811,133,2014-08-01T13:10:00,2,20774627,190799
OK,145,62,811,145,2014-08-01T13:15:00,2,20775076,190799
OK,156,57,811,156,2014-08-01T13:20:00,3,20775525,190799
OK,166,54,811,166,2014-08-01T13:25:00,2,20775974,190799
OK,201,44,811,201,2014-08-01T13:30:00,0,20776423,190799
OK,201,44,811,201,2014-08-01T13:35:00,0,20776872,190799
OK,201,44,811,201,2014-08-01T13:40:00,0,20777321,190799
OK,138,65,811,138,2014-08-01T13:45:00,1,20777770,190799
OK,138,65,811,138,2014-08-01T13:50:00,1,20778219,190799
OK,138,65,811,138,2014-08-01T13:55:00,0,20778668,190799
OK,148,60,811,148,2014-08-01T14:00:00,2,20779117,190799
OK,147,61,811,147,2014-08-01T14:05:00,3,20779566,190799
OK,138,65,811,138,2014-08-01T14:10:00,1,20780015,190799
OK,147,61,811,147,2014-08-01T14:15:00,1,20780464,190799
OK,147,61,811,147,2014-08-01T14:20:00,1,20780913,190799
OK,147,61,811,147,2014-08-01T14:25:00,0,20781362,190799
OK,147,61,811,147,2014-08-01T14:30:00,0,20781811,190799
OK,147,61,811,147,2014-08-01T14:35:00,0,20782260,190799
OK,147,61,811,147,2014-08-01T14:40:00,0,20782709,190799
OK,127,70,811,127,2014-08-01T14:45:00,2,20783158,190799
OK,129,69,811,129,2014-08-01T14:50:00,3,20783607,190799
OK,162,55,811,162,2014-08-01T14:55:00,1,20784056,190799
OK,162,55,811,162,2014-08-01T15:00:00,0,20784505,190799
OK,162,55,811,162,2014-08-01T15:05:00,0,20784954,190799
OK,162,55,811,162,2014-08-01T15:10:00,0,20785403,190799
OK,162,55,811,162,2014-08-01T15:15:00,0,20785852,190799
OK,134,67,811,134,2014-08-01T15:20:00,2,20786301,190799
OK,134,67,811,134,2014-08-01T15:25:00,2,20786750,190799
OK,142,63,811,142,2014-08-01T15:30:00,0,20787199,190799
OK,158,57,811,158,2014-08-01T15:35:00,1,20787648,190799
OK,158,57,811,158,2014-08-01T15:40:00,0,20788097,190799
OK,132,68,811,132,2014-08-01T15:45:00,4,20788546,190799
OK,121,74,811,121,2014-08-01T15:50:00,1,20788995,190799
OK,134,67,811,134,2014-08-01T15:55:00,0,20789444,190799
OK,122,73,811,122,2014-08-01T16:00:00,1,20789893,190799
OK,122,73,811,122,2014-08-01T16:05:00,1,20790342,190799
OK,122,73,811,122,2014-08-01T16:10:00,0,20790791,190799
OK,122,73,811,122,2014-08-01T16:15:00,0,20791240,190799
OK,122,73,811,122,2014-08-01T16:20:00,0,20791689,190799
OK,122,73,811,122,2014-08-01T16:25:00,0,20792138,190799
OK,122,73,811,122,2014-08-01T16:30:00,0,20792587,190799
OK,222,40,811,222,2014-08-01T16:35:00,1,20793036,190799
OK,222,40,811,222,2014-08-01T16:40:00,0,20793485,190799
OK,146,61,811,146,2014-08-01T16:45:00,1,20793934,190799
OK,146,61,811,146,2014-08-01T16:50:00,1,20794383,190799
OK,146,61,811,146,2014-08-01T16:55:00,0,20794832,190799
OK,146,61,811,146,2014-08-01T17:00:00,0,20795281,190799
OK,146,61,811,146,2014-08-01T17:05:00,0,20795730,190799
OK,146,61,811,146,2014-08-01T17:10:00,0,20796179,190799
OK,146,61,811,146,2014-08-01T17:15:00,0,20796628,190799
OK,146,61,811,146,2014-08-01T17:20:00,0,20797077,190799
OK,146,61,811,146,2014-08-01T17:25:00,0,20797526,190799
OK,146,61,811,146,2014-08-01T17:30:00,0,20797975,190799
OK,146,61,811,146,2014-08-01T17:35:00,1,20798424,190799
OK,137,65,811,137,2014-08-01T17:40:00,2,20798873,190799
OK,137,65,811,137,2014-08-01T17:45:00,2,20799322,190799
OK,152,59,811,152,2014-08-01T17:50:00,0,20799771,190799
OK,152,59,811,152,2014-08-01T17:55:00,0,20800220,190799
OK,152,59,811,152,2014-08-01T18:00:00,0,20800669,190799
OK,152,59,811,152,2014-08-01T18:05:00,0,20801118,190799
OK,152,59,811,152,2014-08-01T18:10:00,0,20801567,190799
OK,152,59,811,152,2014-08-01T18:15:00,0,20802016,190799
OK,152,59,811,152,2014-08-01T18:20:00,0,20802465,190799
OK,152,59,811,152,2014-08-01T18:25:00,0,20802914,190799
OK,152,59,811,152,2014-08-01T18:30:00,0,20803363,190799
OK,152,59,811,152,2014-08-01T18:35:00,0,20803812,190799
OK,152,59,811,152,2014-08-01T18:40:00,0,20804261,190799
OK,152,59,811,152,2014-08-01T18:45:00,0,20804710,190799
OK,152,59,811,152,2014-08-01T18:50:00,0,20805159,190799
OK,152,59,811,152,2014-08-01T18:55:00,0,20805608,190799
OK,152,59,811,152,2014-08-01T19:00:00,0,20806057,190799
OK,152,59,811,152,2014-08-01T19:05:00,0,20806506,190799
OK,152,59,811,152,2014-08-01T19:10:00,0,20806955,190799
OK,152,59,811,152,2014-08-01T19:15:00,0,20807404,190799
OK,152,59,811,152,2014-08-01T19:20:00,0,20807853,190799
OK,152,59,811,152,2014-08-01T19:25:00,0,20808302,190799
OK,152,59,811,152,2014-08-01T19:30:00,0,20808751,190799
OK,152,59,811,152,2014-08-01T19:35:00,0,20809200,190799
OK,152,59,811,152,2014-08-01T19:40:00,0,20809649,190799
OK,152,59,811,152,2014-08-01T19:45:00,0,20810098,190799
OK,113,79,811,113,2014-08-01T19:50:00,1,20810547,190799
OK,113,79,811,113,2014-08-01T19:55:00,0,20810996,190799
OK,117,76,811,117,2014-08-01T22:00:00,0,20816725,190799
OK,117,76,811,117,2014-08-01T22:05:00,0,20817174,190799
OK,117,76,811,117,2014-08-02T00:00:00,0,20823164,190799
OK,117,76,811,117,2014-08-02T00:05:00,0,20823613,190799
OK,117,76,811,117,2014-08-02T00:10:00,0,20824062,190799
OK,117,76,811,117,2014-08-02T00:15:00,0,20824511,190799
OK,117,76,811,117,2014-08-02T00:20:00,0,20824960,190799
OK,117,76,811,117,2014-08-02T00:25:00,0,20825409,190799
OK,117,76,811,117,2014-08-02T00:30:00,0,20825858,190799
OK,117,76,811,117,2014-08-02T00:35:00,0,20826307,190799
OK,117,76,811,117,2014-08-02T00:40:00,0,20826756,190799
OK,117,76,811,117,2014-08-02T00:45:00,0,20827205,190799
OK,117,76,811,117,2014-08-02T00:50:00,0,20827654,190799
OK,117,76,811,117,2014-08-02T00:55:00,0,20828103,190799
OK,117,76,811,117,2014-08-02T01:00:00,0,20828552,190799
OK,117,76,811,117,2014-08-02T01:05:00,0,20829001,190799
OK,117,76,811,117,2014-08-02T01:10:00,0,20829450,190799
OK,117,76,811,117,2014-08-02T01:15:00,0,20829899,190799
OK,117,76,811,117,2014-08-02T01:20:00,0,20830348,190799
OK,117,76,811,117,2014-08-02T01:25:00,0,20830797,190799
OK,117,76,811,117,2014-08-02T01:30:00,0,20831246,190799
OK,117,76,811,117,2014-08-02T01:35:00,0,20831695,190799
OK,117,76,811,117,2014-08-02T01:40:00,0,20832144,190799
OK,117,76,811,117,2014-08-02T01:45:00,0,20832593,190799
OK,117,76,811,117,2014-08-02T01:50:00,0,20833042,190799
OK,117,76,811,117,2014-08-02T01:55:00,0,20833491,190799
OK,117,76,811,117,2014-08-02T02:00:00,0,20833940,190799
OK,117,76,811,117,2014-08-02T02:05:00,0,20834389,190799
OK,117,76,811,117,2014-08-02T02:10:00,0,20834838,190799
OK,117,76,811,117,2014-08-02T02:15:00,0,20835287,190799
OK,117,76,811,117,2014-08-02T02:20:00,0,20835736,190799
OK,117,76,811,117,2014-08-02T02:25:00,0,20836185,190799
OK,117,76,811,117,2014-08-02T02:30:00,0,20836634,190799
OK,117,76,811,117,2014-08-02T02:35:00,0,20837083,190799
OK,117,76,811,117,2014-08-02T02:40:00,0,20837532,190799
OK,117,76,811,117,2014-08-02T02:45:00,0,20837981,190799
OK,117,76,811,117,2014-08-02T02:50:00,0,20838430,190799
OK,117,76,811,117,2014-08-02T02:55:00,0,20838879,190799
OK,117,76,811,117,2014-08-02T03:00:00,0,20839328,190799
OK,117,76,811,117,2014-08-02T03:05:00,0,20839777,190799
OK,117,76,811,117,2014-08-02T03:10:00,0,20840226,190799
OK,117,76,811,117,2014-08-02T03:15:00,0,20840675,190799
OK,117,76,811,117,2014-08-02T03:20:00,0,20841124,190799
OK,117,76,811,117,2014-08-02T03:25:00,0,20841573,190799
OK,117,76,811,117,2014-08-02T03:30:00,0,20842022,190799
OK,117,76,811,117,2014-08-02T03:35:00,0,20842471,190799
OK,117,76,811,117,2014-08-02T03:40:00,0,20842920,190799
OK,117,76,811,117,2014-08-02T03:45:00,0,20843369,190799
OK,117,76,811,117,2014-08-02T03:50:00,0,20843818,190799
OK,117,76,811,117,2014-08-02T03:55:00,0,20844267,190799
OK,117,76,811,117,2014-08-02T04:20:00,0,20845713,190799
OK,117,76,811,117,2014-08-02T04:35:00,0,20846636,190799
OK,117,76,811,117,2014-08-02T04:45:00,0,20847278,190799
OK,117,76,811,117,2014-08-02T04:50:00,0,20847644,190799
OK,116,77,811,116,2014-08-02T05:50:00,1,20851164,190799
OK,116,77,811,116,2014-08-02T06:00:00,0,20851721,190799
OK,116,77,811,116,2014-08-02T06:05:00,0,20852170,190799
OK,116,77,811,116,2014-08-02T06:10:00,0,20852619,190799
OK,109,82,811,109,2014-08-02T06:15:00,1,20853068,190799
OK,136,66,811,136,2014-08-02T06:20:00,1,20853517,190799
OK,136,66,811,136,2014-08-02T06:25:00,1,20853966,190799
OK,136,66,811,136,2014-08-02T06:30:00,0,20854415,190799
OK,136,66,811,136,2014-08-02T06:35:00,0,20854864,190799
OK,136,66,811,136,2014-08-02T06:40:00,0,20855313,190799
OK,136,66,811,136,2014-08-02T06:45:00,0,20855762,190799
OK,136,66,811,136,2014-08-02T06:50:00,0,20856211,190799
OK,136,66,811,136,2014-08-02T06:55:00,0,20856660,190799
OK,136,66,811,136,2014-08-02T07:00:00,0,20857109,190799
OK,136,66,811,136,2014-08-02T07:05:00,0,20857558,190799
OK,129,69,811,129,2014-08-02T07:10:00,1,20858007,190799
OK,127,70,811,127,2014-08-02T07:15:00,2,20858456,190799
OK,125,72,811,125,2014-08-02T07:20:00,3,20858905,190799
OK,124,72,811,124,2014-08-02T07:25:00,1,20859354,190799
OK,125,72,811,125,2014-08-02T07:30:00,1,20859803,190799
OK,124,72,811,124,2014-08-02T07:35:00,2,20860252,190799
OK,123,73,811,123,2014-08-02T07:40:00,0,20860701,190799
OK,134,67,811,134,2014-08-02T07:45:00,2,20861150,190799
OK,136,66,811,136,2014-08-02T07:50:00,3,20861599,190799
OK,145,62,811,145,2014-08-02T07:55:00,1,20862048,190799
OK,145,62,811,145,2014-08-02T08:00:00,0,20862497,190799
OK,128,70,811,128,2014-08-02T08:05:00,1,20862946,190799
OK,142,63,811,142,2014-08-02T08:10:00,1,20863395,190799
OK,136,66,811,136,2014-08-02T08:15:00,2,20863844,190799
OK,153,58,811,153,2014-08-02T08:20:00,1,20864293,190799
OK,166,54,811,166,2014-08-02T08:25:00,2,20864742,190799
OK,158,57,811,158,2014-08-02T08:30:00,2,20865191,190799
OK,128,70,811,128,2014-08-02T08:35:00,1,20865640,190799
OK,122,73,811,122,2014-08-02T08:40:00,2,20866089,190799
OK,122,73,811,122,2014-08-02T08:45:00,0,20866538,190799
OK,132,68,811,132,2014-08-02T08:50:00,1,20866987,190799
OK,140,64,811,140,2014-08-02T08:55:00,1,20867436,190799
OK,140,64,811,140,2014-08-02T09:00:00,0,20867885,190799
OK,140,64,811,140,2014-08-02T09:05:00,0,20868334,190799
OK,140,64,811,140,2014-08-02T09:10:00,0,20868783,190799
OK,140,64,811,140,2014-08-02T09:15:00,0,20869232,190799
OK,157,57,811,157,2014-08-02T09:20:00,1,20869681,190799
OK,157,57,811,157,2014-08-02T09:25:00,1,20870130,190799
OK,157,57,811,157,2014-08-02T09:30:00,0,20870579,190799
OK,141,63,811,141,2014-08-02T09:35:00,0,20871028,190799
OK,138,65,811,138,2014-08-02T09:40:00,1,20871477,190799
OK,138,65,811,138,2014-08-02T09:45:00,1,20871926,190799
OK,138,65,811,138,2014-08-02T09:50:00,0,20872375,190799
OK,138,65,811,138,2014-08-02T09:55:00,0,20872824,190799
OK,145,62,811,145,2014-08-02T10:00:00,1,20873273,190799
OK,145,62,811,145,2014-08-02T10:05:00,1,20873722,190799
OK,145,62,811,145,2014-08-02T10:10:00,0,20874171,190799
OK,145,62,811,145,2014-08-02T10:15:00,0,20874620,190799
OK,188,47,811,188,2014-08-02T10:20:00,1,20875069,190799
OK,127,70,811,127,2014-08-02T10:25:00,2,20875518,190799
OK,127,70,811,127,2014-08-02T10:30:00,2,20875967,190799
OK,134,67,811,134,2014-08-02T10:35:00,1,20876416,190799
OK,138,65,811,138,2014-08-02T10:40:00,1,20876865,190799
OK,138,65,811,138,2014-08-02T10:45:00,0,20877314,190799
OK,175,51,811,175,2014-08-02T10:50:00,1,20877763,190799
OK,151,59,811,151,2014-08-02T10:55:00,2,20878212,190799
OK,136,66,811,136,2014-08-02T11:00:00,2,20878661,190799
OK,134,67,811,134,2014-08-02T11:05:00,3,20879110,190799
OK,156,57,811,156,2014-08-02T11:10:00,1,20879559,190799
OK,133,67,811,133,2014-08-02T11:15:00,1,20880008,190799
OK,151,59,811,151,2014-08-02T11:20:00,3,20880457,190799
OK,151,59,811,151,2014-08-02T11:25:00,1,20880906,190799
OK,123,73,811,123,2014-08-02T11:30:00,1,20881355,190799
OK,123,73,811,123,2014-08-02T11:35:00,1,20881804,190799
OK,123,73,811,123,2014-08-02T11:40:00,0,20882253,190799
OK,123,73,811,123,2014-08-02T11:45:00,0,20882702,190799
OK,161,55,811,161,2014-08-02T11:50:00,2,20883151,190799
OK,136,66,811,136,2014-08-02T11:55:00,1,20883600,190799
OK,131,68,811,131,2014-08-02T12:00:00,2,20884049,190799
OK,127,70,811,127,2014-08-02T12:05:00,0,20884498,190799
OK,139,64,811,139,2014-08-02T12:10:00,2,20884947,190799
OK,137,65,811,137,2014-08-02T12:15:00,3,20885396,190799
OK,129,69,811,129,2014-08-02T12:20:00,0,20885845,190799
OK,139,64,811,139,2014-08-02T12:25:00,2,20886294,190799
OK,129,69,811,129,2014-08-02T12:30:00,1,20886743,190799
OK,129,69,811,129,2014-08-02T12:35:00,0,20887192,190799
OK,147,61,811,147,2014-08-02T12:40:00,2,20887641,190799
OK,147,61,811,147,2014-08-02T12:45:00,0,20888090,190799
OK,131,68,811,131,2014-08-02T12:50:00,2,20888539,190799
OK,131,68,811,131,2014-08-02T12:55:00,2,20888988,190799
OK,131,68,811,131,2014-08-02T13:00:00,0,20889437,190799
OK,131,68,811,131,2014-08-02T13:05:00,0,20889886,190799
OK,131,68,811,131,2014-08-02T13:10:00,0,20890335,190799
OK,131,68,811,131,2014-08-02T13:15:00,0,20890784,190799
OK,131,68,811,131,2014-08-02T13:20:00,2,20891233,190799
OK,131,68,811,131,2014-08-02T13:25:00,2,20891682,190799
OK,147,61,811,147,2014-08-02T13:30:00,1,20892131,190799
OK,147,61,811,147,2014-08-02T13:35:00,0,20892580,190799
OK,147,61,811,147,2014-08-02T13:40:00,0,20893029,190799
OK,134,67,811,134,2014-08-02T13:45:00,1,20893478,190799
OK,118,76,811,118,2014-08-02T13:50:00,1,20893927,190799
OK,118,76,811,118,2014-08-02T13:55:00,1,20894376,190799
OK,118,76,811,118,2014-08-02T14:00:00,0,20894825,190799
OK,118,76,811,118,2014-08-02T14:05:00,0,20895274,190799
OK,118,76,811,118,2014-08-02T14:10:00,0,20895723,190799
OK,118,76,811,118,2014-08-02T14:15:00,0,20896172,190799
OK,140,64,811,140,2014-08-02T14:20:00,2,20896621,190799
OK,136,66,811,136,2014-08-02T14:25:00,2,20897070,190799
OK,130,69,811,130,2014-08-02T14:30:00,1,20897519,190799
OK,146,61,811,146,2014-08-02T14:35:00,1,20897968,190799
OK,146,61,811,146,2014-08-02T14:40:00,0,20898417,190799
OK,146,61,811,146,2014-08-02T14:45:00,0,20898866,190799
OK,121,74,811,121,2014-08-02T14:50:00,1,20899315,190799
OK,121,74,811,121,2014-08-02T14:55:00,0,20899764,190799
OK,121,74,811,121,2014-08-02T15:00:00,0,20900213,190799
OK,121,74,811,121,2014-08-02T15:05:00,0,20900662,190799
OK,121,74,811,121,2014-08-02T15:10:00,0,20901111,190799
OK,121,74,811,121,2014-08-02T15:15:00,0,20901560,190799
OK,127,70,811,127,2014-08-02T15:20:00,1,20902009,190799
OK,127,70,811,127,2014-08-02T15:25:00,1,20902458,190799
OK,127,70,811,127,2014-08-02T15:30:00,0,20902907,190799
OK,160,56,811,160,2014-08-02T15:35:00,1,20903356,190799
OK,139,64,811,139,2014-08-02T15:40:00,1,20903805,190799
OK,155,58,811,155,2014-08-02T15:45:00,1,20904254,190799
OK,155,58,811,155,2014-08-02T15:50:00,1,20904703,190799
OK,155,58,811,155,2014-08-02T15:55:00,0,20905152,190799
OK,155,58,811,155,2014-08-02T16:00:00,0,20905601,190799
OK,133,67,811,133,2014-08-02T16:05:00,2,20906050,190799
OK,137,65,811,137,2014-08-02T16:10:00,3,20906499,190799
OK,177,50,811,177,2014-08-02T16:15:00,0,20906948,190799
OK,143,62,811,143,2014-08-02T16:20:00,1,20907397,190799
OK,143,62,811,143,2014-08-02T16:25:00,0,20907846,190799
OK,160,56,811,160,2014-08-02T16:30:00,2,20908295,190799
OK,121,74,811,121,2014-08-02T16:35:00,1,20908744,190799
OK,121,74,811,121,2014-08-02T16:40:00,1,20909193,190799
OK,121,74,811,121,2014-08-02T16:45:00,0,20909642,190799
OK,121,74,811,121,2014-08-02T16:50:00,0,20910091,190799
OK,121,74,811,121,2014-08-02T16:55:00,0,20910540,190799
OK,121,74,811,121,2014-08-02T17:00:00,0,20910989,190799
OK,121,74,811,121,2014-08-02T17:05:00,0,20911438,190799
OK,121,74,811,121,2014-08-02T17:10:00,0,20911887,190799
OK,120,75,811,120,2014-08-02T17:15:00,2,20912336,190799
OK,122,73,811,122,2014-08-02T17:20:00,2,20912785,190799
OK,122,73,811,122,2014-08-02T17:25:00,0,20913234,190799
OK,135,66,811,135,2014-08-02T17:30:00,1,20913683,190799
OK,135,66,811,135,2014-08-02T17:35:00,0,20914132,190799
OK,142,63,811,142,2014-08-02T17:40:00,1,20914581,190799
OK,142,63,811,142,2014-08-02T17:45:00,0,20915030,190799
OK,142,63,811,142,2014-08-02T17:50:00,0,20915479,190799
OK,142,63,811,142,2014-08-02T17:55:00,0,20915928,190799
OK,142,63,811,142,2014-08-02T18:00:00,0,20916377,190799
OK,152,59,811,152,2014-08-02T18:05:00,0,20916826,190799
OK,152,59,811,152,2014-08-02T18:10:00,0,20917275,190799
OK,152,59,811,152,2014-08-02T18:15:00,0,20917724,190799
OK,152,59,811,152,2014-08-02T18:20:00,0,20918173,190799
OK,152,59,811,152,2014-08-02T18:25:00,0,20918622,190799
OK,110,81,811,110,2014-08-02T18:30:00,1,20919071,190799
OK,110,81,811,110,2014-08-02T18:35:00,0,20919520,190799
OK,110,81,811,110,2014-08-02T18:40:00,0,20919969,190799
OK,110,81,811,110,2014-08-02T18:45:00,0,20920418,190799
OK,110,81,811,110,2014-08-02T18:50:00,0,20920867,190799
OK,110,81,811,110,2014-08-02T18:55:00,0,20921316,190799
OK,110,81,811,110,2014-08-02T19:00:00,0,20921765,190799
OK,110,81,811,110,2014-08-02T19:05:00,0,20922214,190799
OK,110,81,811,110,2014-08-02T19:10:00,0,20922663,190799
OK,110,81,811,110,2014-08-02T19:15:00,0,20923112,190799
OK,110,81,811,110,2014-08-02T19:20:00,0,20923561,190799
OK,110,81,811,110,2014-08-02T19:25:00,0,20924010,190799
OK,110,81,811,110,2014-08-02T19:30:00,0,20924459,190799
OK,110,81,811,110,2014-08-02T19:35:00,0,20924908,190799
OK,110,81,811,110,2014-08-02T19:40:00,0,20925357,190799
OK,110,81,811,110,2014-08-02T19:45:00,0,20925806,190799
OK,110,81,811,110,2014-08-02T19:50:00,0,20926255,190799
OK,110,81,811,110,2014-08-02T19:55:00,0,20926704,190799
OK,110,81,811,110,2014-08-02T20:00:00,0,20927153,190799
OK,122,73,811,122,2014-08-02T20:05:00,1,20927602,190799
OK,122,73,811,122,2014-08-02T20:10:00,0,20928051,190799
OK,122,73,811,122,2014-08-02T20:15:00,0,20928500,190799
OK,159,56,811,159,2014-08-02T20:20:00,1,20928949,190799
OK,159,56,811,159,2014-08-02T20:25:00,0,20929398,190799
OK,159,56,811,159,2014-08-02T20:30:00,0,20929847,190799
OK,159,56,811,159,2014-08-02T20:35:00,0,20930296,190799
OK,159,56,811,159,2014-08-02T20:40:00,0,20930745,190799
OK,159,56,811,159,2014-08-02T20:45:00,0,20931194,190799
OK,159,56,811,159,2014-08-02T20:50:00,0,20931643,190799
OK,159,56,811,159,2014-08-02T20:55:00,0,20932092,190799
OK,159,56,811,159,2014-08-02T21:00:00,0,20932541,190799
OK,106,84,811,106,2014-08-02T21:05:00,1,20932990,190799
OK,143,62,811,143,2014-08-02T21:10:00,2,20933439,190799
OK,161,55,811,161,2014-08-02T21:15:00,0,20933888,190799
OK,161,55,811,161,2014-08-02T21:20:00,0,20934337,190799
OK,161,55,811,161,2014-08-02T21:25:00,0,20934786,190799
OK,161,55,811,161,2014-08-02T21:30:00,0,20935235,190799
OK,172,52,811,172,2014-08-02T21:35:00,1,20935684,190799
OK,172,52,811,172,2014-08-02T21:40:00,0,20936133,190799
OK,172,52,811,172,2014-08-02T21:45:00,0,20936582,190799
OK,172,52,811,172,2014-08-02T21:50:00,0,20937031,190799
OK,172,52,811,172,2014-08-02T21:55:00,0,20937480,190799
OK,172,52,811,172,2014-08-02T22:00:00,0,20937929,190799
OK,172,52,811,172,2014-08-02T22:05:00,0,20938378,190799
OK,172,52,811,172,2014-08-02T22:10:00,0,20938827,190799
OK,172,52,811,172,2014-08-02T22:15:00,0,20939276,190799
OK,172,52,811,172,2014-08-02T22:20:00,0,20939725,190799
OK,172,52,811,172,2014-08-02T22:25:00,0,20940174,190799
OK,172,52,811,172,2014-08-02T22:30:00,0,20940623,190799
OK,172,52,811,172,2014-08-02T22:35:00,0,20941072,190799
OK,172,52,811,172,2014-08-02T22:40:00,0,20941521,190799
OK,172,52,811,172,2014-08-02T22:45:00,0,20941970,190799
OK,96,93,811,96,2014-08-02T22:50:00,1,20942419,190799
OK,96,93,811,96,2014-08-02T22:55:00,1,20942868,190799
OK,96,93,811,96,2014-08-02T23:00:00,0,20943317,190799
OK,96,93,811,96,2014-08-02T23:10:00,0,20943766,190799
OK,96,93,811,96,2014-08-02T23:15:00,0,20944215,190799
OK,96,93,811,96,2014-08-02T23:20:00,0,20944664,190799
OK,96,93,811,96,2014-08-02T23:25:00,0,20945113,190799
OK,96,93,811,96,2014-08-02T23:30:00,0,20945562,190799
OK,96,93,811,96,2014-08-02T23:35:00,0,20946011,190799
OK,96,93,811,96,2014-08-02T23:40:00,0,20946460,190799
OK,96,93,811,96,2014-08-02T23:45:00,0,20946909,190799
OK,96,93,811,96,2014-08-02T23:50:00,0,20947358,190799
OK,96,93,811,96,2014-08-02T23:55:00,0,20947807,190799
OK,96,93,811,96,2014-08-03T00:00:00,0,20948256,190799
OK,96,93,811,96,2014-08-03T00:05:00,0,20948705,190799
OK,96,93,811,96,2014-08-03T00:10:00,0,20949154,190799
OK,96,93,811,96,2014-08-03T00:15:00,0,20949602,190799
OK,96,93,811,96,2014-08-03T00:20:00,0,20950051,190799